THOR AGENA B DEB, 1948

Orbit data source: Space-Track

THOR AGENA B DEB, 1948 is space debris in LEO originally from a launch on Mon, 29 Nov 1965 UTC launched from the Air Force Western Test Range (AFWTR). Debris objects in space refer to the collection of defunct objects orbiting the Earth. Examples of debris include non-operational satellites, rocket bodies, and fragments generated from explosions, collisions, or faulty payload assembly.

Loading next visibility...
THOR AGENA B DEB details
Identifier
1948, 1965-098F
Orbit
LEO
Last TLE update1 day ago
Origin
Flag of USGSFC (US)
ManufacturerUnknown
MissionSpacecraft
Bus & MotorUnknown
Mass~1 kg wet, ~1 kg dry
Launch date (UTC)
1965-11-29 (59 years ago)
Launch vehicleUnknown
Launch site
Air Force Western Test Range (AFWTR)
Object type
Payload
Rocket body
Debris
Shape & HBRHalf Cyl + Cone, 1.5 m
Radar Cross Section0.531 m², Medium (>0.1 m² and < 1m²)

Expand to show TLE details & history

TLE from 1 day ago
0 THOR AGENA B DEB
1 01948U 65098F   25044.47278717  .00009936  00000-0  18707-2 0  9990
2 01948  79.8430  67.1034 0782004  38.8761 326.6025 13.53744243742823
Epoch: 2025-02-13T11:20Z
Definitive object data (Epoch: 2025-02-13T11:20:48.811Z)
Latitude-0.00004°
Longitude113.15161°
Altitude590.914 km
Speed7.8 km/s
True Right ascension04h 28m 24s
True Declination0° 00' 00"
Sunlit
Object was in daylight at TLE epoch
Visualization TLE readout
Latitude-79.8834°
Longitude19.60627°
Altitude1,400.615 km
Speed7.006 km/s
Apparent Right ascension04h 52m 33s
Apparent Declination-69° 03' 22"
Sunlit
Object is in daylight
Visualization observer readout
Local Sidereal Time17:56:35
Azimuth168.756° S
Elevation-59.633°
Doppler factor1
Orbital elements
Apogee altitude1,637.148 km
Perigee altitude474.472 km
Semi-major axis7,433.947 km
Eccentricity0.0782004
Inclination79.843°
RAAN67.1034°
Arg. of periapsis38.8761°
True anomaly321.24124°
Mean anomaly326.6025°
Eccentric anomaly323.9668°
Mean motion3.38621 °/min
BSTAR0.0018707
Orbital period106.31 mins
Loading maneuver chart data...
Loading historical data...
Loading historical data...
Loading historical data...
Loading historical data...
Loading historical data...
Loading historical data...
Loading historical data...

THOR AGENA B DEB Visibility forecast

Observer location: undefined°, undefined

Span
Click to sort rows by Start time (UTC) header in descending order
Start Az.
Max El. time (UTC)
Max El. Az.
Max El.
End time (UTC)
End Az.
6 mins2025-02-15 02:29:28.432Z208.048° SW2025-02-15 02:32:28.432Z282.796° WNW37.67°2025-02-15 02:35:28.432Z358.645° N
10 mins2025-02-15 11:46:28.432Z24.658° NE2025-02-15 11:50:28.432Z73.644° E25.592°2025-02-15 11:56:28.432Z126.8° SE
12 mins2025-02-15 13:33:28.432Z331.043° NNW2025-02-15 13:38:28.432Z250.998° W38.024°2025-02-15 13:45:28.432Z191.658° SSW
|